Regional Weather Roundup
Issued by NWS Charleston, SC

Current Version | Previous Version | Text Only | Print | Product List | Glossary Off
Versions: 1 2 3 4 5 6 7 8 9 10 11 12 13 14 15 16 17 18 19 20 21 22 23 24 25 26 27 28 29 30 31 32 33 34 35 36 37 38 39 40 41 42 43 44 45 46 47 48 49 50
000 ASUS42 KCHS 210527 RWRCHS Regional Weather Roundup National Weather Service Charleston SC 1200 AM EST WED FEB 21 2018 NOTE: "fair" indicates few or no clouds below 12,000 feet with no significant weather and/or obstructions to visibility. Not all stations are quality controlled. Use data with caution, especially dewpoint observations. SCZ027-030-031-034>040-042>050-210600- ...Southeast South Carolina... CITY SKY/WX TMP DP RH WIND PRES REMARKS N Charleston FAIR 65 64 97 SE6 30.43F Waterfront Prk N/A 63 63 100 CALM 30.30S Mount Pleasant FAIR 61 61 100 CALM 30.44F Johns Island FOG 63 63 100 CALM 30.44S VSB<1/4 Pinopolis N/A 66 66 100 VRB2 30.35S Moncks Corner FAIR 66 64 94 S5 30.43S Summerville FAIR 68 64 88 SE3 30.43F Beaufort MCAS MOCLDY 70 68 93 SE6 30.42S Beaufort Arpt FAIR 68 66 94 SE8 30.42S Hilton Head Is FAIR 68 66 94 VRB3 30.43S Walterboro FAIR 64 64 100 SE5 30.43S Allendale FAIR 66 66 100 S3 30.41R ...Southern Midlands and Pee Dee... CITY SKY/WX TMP DP RH WIND PRES REMARKS Georgetown FAIR 63 61 94 CALM 30.46S Kingstree FAIR 61 59 94 E5 30.43F Orangeburg FAIR 66 64 93 SE5 30.42S Barnwell N/A 68 68 100 CALM 30.42S Aiken CLOUDY 66 66 100 S9 30.45S Manning FAIR 64 63 94 MISG 30.43S Columbia CLOUDY 70 67 90 VRB6 30.41R Sumter FAIR 67 64 90 S7 30.40S Florence FAIR 63 62 97 SE6 30.44S Myrtle Beach FOG 63 63 100 SE6 30.47S VSB 1/2 N Myrtle Beach MOCLDY 64 64 100 CALM 30.46S $$ GAZ063-065-086>088-099>101-113>116-118-119-134>141-150-210600- ...Southeast Georgia... CITY SKY/WX TMP DP RH WIND PRES REMARKS Savannah Arpt FAIR 69 67 93 SE12 30.40F Hunter AAF FAIR 69 67 95 SE8 30.38F Fort Stewart FAIR 69 66 91 SE8 30.38S Statesboro MOCLDY 68 32 26 CALM 30.41S Sylvania FAIR 67 67 100 CALM 30.42R Claxton MOCLDY 67 66 98 CALM 30.40S FOG ...CSRA, Central and far Southeast Georgia... CITY SKY/WX TMP DP RH WIND PRES REMARKS Thomson CLOUDY 69 65 86 SW9 30.45R Augusta-Bush CLOUDY 71 67 87 SE12 30.39S Augusta-Daniel CLOUDY 71 66 84 SE9 30.41S Swainsboro CLOUDY 70 68 94 SE8 30.41S Vidalia CLOUDY 70 68 94 SE5 30.40R Eastman CLOUDY 72 61 67 SE9G16 30.40S Hazlehurst MOCLDY 72 65 78 SE6 30.38S Alma CLOUDY 71 67 87 SE6 30.38S Waycross CLOUDY 70 67 90 SE7 30.38S Jesup CLOUDY 70 66 88 CALM 30.40S Baxley CLOUDY 68 68 100 SE6 30.39S Brunswick FAIR 68 64 88 SE6 30.41F Saint Simons FAIR 66 66 100 SE7 30.40F $$ SCZ027-028-034-036>038-045-046-048>050-GAZ119-141-210600- ...Lake and Supplemental Coastal Observations... STATION/POSITION TIME TEMP WIND PRES WAVE SWELL AIR SEA DIR/SP/G HT/PER HT/PER/DIR (UTC) (F) (DEG/KT/KT) (MB) (FT/S) (FT/S/D) Winyah Bay 0445 64 CALM 1031.0S Lake Murray 0450 65 150/ 6/ 7 1029.1S ACE Basin NERRS 0445 67 130/ 3 1030.0S Fort Pulaski 0500 68 60 130/ 5/ 8 1030.2 Sapelo Island 0500 69 140/ 7 1030.0 $$ ANZ835-935-AMZ111-154-330-350-352-354-370-450-454-472-210600- ...C-MAN and Buoy Observations... STATION/POSITION TIME TEMP WIND PRES WAVE SWELL AIR SEA DIR/SP/G HT/PER HT/PER/DIR (UTC) (F) (DEG/KT/KT) (MB) (FT/S) (FT/S/D) Buoy 41004 0510 71 69 150/ 6/ 8 1030.7 Buoy 41008 0450 63 58 130/ 8/ 8 1029.5S 3/ 6 3/120/ 6 Folly Beach CMAN 0500 62 120/ 7/ 7 1031.1F Capers Nearshore 0408 59 60 130/ 6/ 8 1030.6S Fripp Nearshore 0508 59 58 120/ 6/ 8 1029.4R STATION/POSITION TIME TEMP WIND PRES WAVE SWELL AIR SEA DIR/SP/G HT/PER HT/PER/DIR (UTC) (F) (DEG/KT/KT) (MB) (FT/S) (FT/S/D) 5E St. Marys GA 0500 63 N/A 4/ 6 Frying Pan Buoy 0510 71 70 170/ 8/ 10 1031.6 Buoy 41025 0510 72 71 200/ 12/ 14 1032.8 Cape Lookout NC 0500 190/ 6/ 7 1032.7R Buoy 41002 0450 72 74 120/ 14/ 16 1032.4F 5/12 3/ 50/12 Buoy 41010 NOT AVBL St Augustine FL 0500 68 65 150/ 10/ 11 1029.2R $$

USA.gov is the U.S. government's official web portal to all federal, state and local government web resources and services.